Change the Weather History Date:

Friday, March 1, 2013

  Actual Average Record
Temperature  
Mean Temperature 36 °F -  
Max Temperature 40 °F - 80 °F (1972)
Min Temperature 32 °F - 14 °F (1980)
Degree Days  
Heating Degree Days 29    
Month to date heating degree days 29  
Since 1 July heating degree days 2946  
Cooling Degree Days 0    
Month to date cooling degree days 0  
Moisture  
Dew Point 32 °F    
Average Humidity 88    
Maximum Humidity 96    
Minimum Humidity 79    
Precipitation  
Precipitation 0.09 in - 1.18 in (1950)
Month to date precipitation 0.09  
Sea Level Pressure  
Sea Level Pressure 30.05 in    
Wind  
Wind Speed 7 mph (NW)    
Max Wind Speed 17 mph    
Max Gust Speed 21 mph    
Visibility 5 miles    
Events Rain , Snow    
T = Trace of Precipitation, MM = Missing Value Source: NWS Daily Summary

Daily Weather History Graph

Daily Weather History Graph

Search for Another Location

Airport or City:

Trip Planner

Search our weather history database for the weather conditions in past years. The results will help you decide how hot, cold, wet, or windy it might be!

Date:

Astronomy

Mar. 01, 2013 Rise Set
Actual Time 6:19 AM CST 5:44 PM CST
Civil Twilight 5:54 AM CST 6:10 PM CST
Nautical Twilight 5:24 AM CST 6:40 PM CST
Astronomical Twilight 4:54 AM CST 7:10 PM CST
Moon 10:08 PM CST (3/1) 8:14 AM CST (3/1)
Length of Visible Light 12h 16m
Length of Day
11h 24m
Waning Gibbous, 83% of the Moon is Illuminated
Mar 1
Waning Gibbous
Mar 4
Last Quarter
Mar 11
New
Mar 19
First Quarter
Mar 27
Full

Hourly Weather History & Observations

Time (CST) Temp. Windchill Dew Point Humidity Pressure Visibility Wind Dir Wind Speed Gust Speed Precip Events Conditions
12:47 AM 33.8 °F 27.7 °F 32.0 °F 93% 30.03 in 6.0 mi NW 6.9 mph - N/A   Overcast
12:52 AM 34.0 °F 28.0 °F 30.9 °F 89% 30.04 in 6.0 mi NW 6.9 mph - N/A   Overcast
1:47 AM 33.8 °F 28.6 °F 30.2 °F 87% 30.03 in 1.8 mi WNW 5.8 mph - 0.00 in Snow Light Snow
1:48 AM 34.0 °F 28.8 °F 30.9 °F 89% 30.04 in 1.8 mi WNW 5.8 mph - 0.00 in Snow Light Snow
2:09 AM 33.8 °F 27.7 °F 30.2 °F 87% 30.03 in 1.5 mi WNW 6.9 mph - 0.00 in Snow Light Snow
2:52 AM 33.1 °F 26.9 °F 30.9 °F 92% 30.04 in 2.0 mi WNW 6.9 mph - 0.01 in Snow Light Snow
3:52 AM 33.1 °F 27.7 °F 30.9 °F 92% 30.04 in 4.0 mi WNW 5.8 mph - 0.00 in   Overcast
4:39 AM 33.8 °F 28.6 °F 30.2 °F 87% 30.03 in 3.0 mi WNW 5.8 mph - 0.00 in Snow Light Snow
4:59 AM 33.8 °F 28.6 °F 30.2 °F 87% 30.03 in 2.5 mi West 5.8 mph - 0.00 in Snow Light Snow
5:15 AM 33.8 °F 28.6 °F 30.2 °F 87% 30.03 in 3.0 mi WNW 5.8 mph - 0.00 in Snow Light Snow
5:29 AM 33.8 °F 29.6 °F 30.2 °F 87% 30.03 in 3.0 mi WNW 4.6 mph - 0.00 in   Overcast
5:52 AM 33.1 °F 27.7 °F 30.9 °F 92% 30.04 in 2.5 mi WNW 5.8 mph - 0.00 in Snow Light Snow
6:05 AM 33.8 °F 27.7 °F 30.2 °F 87% 30.03 in 3.0 mi WNW 6.9 mph - 0.00 in Snow Light Snow
6:28 AM 33.8 °F 26.4 °F 30.2 °F 87% 30.03 in 6.0 mi NW 9.2 mph - 0.00 in   Overcast
6:52 AM 33.1 °F 26.9 °F 30.0 °F 89% 30.05 in 5.0 mi NW 6.9 mph - 0.00 in   Overcast
7:52 AM 33.1 °F 26.1 °F 30.0 °F 89% 30.07 in 3.0 mi NW 8.1 mph - 0.00 in Snow Light Snow
7:59 AM 33.8 °F 27.0 °F 30.2 °F 87% 30.06 in 2.5 mi WNW 8.1 mph - 0.00 in Snow Light Snow
8:24 AM 33.8 °F 27.7 °F 30.2 °F 87% 30.06 in 2.0 mi WNW 6.9 mph - 0.00 in Snow Light Snow
8:38 AM 33.8 °F 27.7 °F 30.2 °F 87% 30.06 in 1.5 mi WNW 6.9 mph - 0.00 in Snow Light Snow
8:52 AM 34.0 °F 28.8 °F 32.0 °F 92% 30.07 in 1.8 mi WNW 5.8 mph - 0.00 in Snow Light Snow
9:04 AM 33.8 °F 28.6 °F 32.0 °F 93% 30.06 in 1.8 mi WNW 5.8 mph - 0.00 in Snow Light Snow
9:13 AM 33.8 °F 27.7 °F 32.0 °F 93% 30.06 in 2.0 mi WNW 6.9 mph - 0.00 in Snow Light Snow
9:31 AM 35.6 °F 29.2 °F 32.0 °F 87% 30.06 in 2.5 mi WNW 8.1 mph - 0.00 in Snow Light Snow
9:39 AM 35.6 °F 29.9 °F 33.8 °F 93% 30.06 in 4.0 mi NW 6.9 mph - 0.00 in Snow Light Snow
9:52 AM 35.1 °F 28.6 °F 32.0 °F 89% 30.07 in 4.0 mi WNW 8.1 mph - 0.00 in Snow Light Snow
11:24 AM 37.4 °F 31.4 °F 33.8 °F 87% 30.07 in 10.0 mi NW 8.1 mph - 0.00 in   Overcast
11:45 AM 35.6 °F 29.2 °F 33.8 °F 93% 30.06 in 4.0 mi WNW 8.1 mph - 0.00 in Snow Light Snow
11:52 AM 36.0 °F 30.3 °F 33.1 °F 89% 30.07 in 3.0 mi WNW 6.9 mph - 0.00 in Snow Light Snow
12:06 PM 37.4 °F 30.8 °F 35.6 °F 93% 30.05 in 9.0 mi West 9.2 mph - 0.00 in   Overcast
12:27 PM 37.4 °F 30.3 °F 35.6 °F 93% 30.04 in 10.0 mi West 10.4 mph - 0.00 in   Overcast
12:34 PM 37.4 °F 31.4 °F 33.8 °F 87% 30.04 in 10.0 mi WNW 8.1 mph 16.1 mph 0.00 in   Overcast
12:50 PM 37.4 °F 31.4 °F 33.8 °F 87% 30.04 in 5.0 mi WNW 8.1 mph - 0.00 in Snow Light Snow
12:52 PM 37.0 °F 30.4 °F 33.1 °F 86% 30.05 in 5.0 mi WNW 9.2 mph - 0.01 in Rain Light Rain
1:04 PM 37.4 °F 31.4 °F 33.8 °F 87% 30.03 in 6.0 mi WNW 8.1 mph - 0.00 in Rain Light Rain
1:36 PM 35.6 °F 29.2 °F 32.0 °F 87% 30.03 in 1.8 mi NW 8.1 mph - 0.01 in Rain Rain
1:40 PM 33.8 °F 27.0 °F 30.2 °F 87% 30.03 in 1.0 mi WNW 8.1 mph - 0.02 in Snow Light Snow
1:44 PM 33.8 °F 28.6 °F 30.2 °F 87% 30.03 in 1.0 mi NW 5.8 mph - 0.02 in Snow Light Snow
1:52 PM 36.0 °F 32.1 °F 34.0 °F 93% 30.04 in 9.0 mi NW 4.6 mph - 0.02 in   Overcast
2:01 PM 37.4 °F 30.8 °F 33.8 °F 87% 30.02 in 10.0 mi NW 9.2 mph - N/A   Overcast
2:29 PM 37.4 °F 30.8 °F 33.8 °F 87% 30.02 in 9.0 mi NNW 9.2 mph 19.6 mph 0.00 in Rain Light Rain
2:39 PM 39.2 °F 34.2 °F 33.8 °F 81% 30.02 in 10.0 mi NNW 6.9 mph - 0.00 in   Overcast
2:52 PM 39.0 °F 33.4 °F 34.0 °F 82% 30.03 in 10.0 mi North 8.1 mph - 0.00 in   Overcast
3:29 PM 35.6 °F 28.0 °F 32.0 °F 87% 30.03 in 4.0 mi North 10.4 mph 20.7 mph 0.01 in Snow Light Snow
3:52 PM 36.0 °F 30.3 °F 34.0 °F 93% 30.04 in 9.0 mi NNW 6.9 mph - 0.01 in   Overcast
4:31 PM 35.6 °F 32.8 °F 33.8 °F 93% 30.03 in 9.0 mi NW 3.5 mph - 0.01 in   Overcast
4:35 PM 35.6 °F 31.7 °F 33.8 °F 93% 30.04 in 5.0 mi NW 4.6 mph - 0.01 in Rain Light Rain
4:43 PM 33.8 °F 27.0 °F 32.0 °F 93% 30.04 in 1.8 mi WNW 8.1 mph - 0.02 in Snow Light Snow
4:52 PM 34.0 °F 27.2 °F 32.0 °F 92% 30.05 in 1.2 mi NW 8.1 mph - 0.02 in Snow Light Snow
5:03 PM 33.8 °F 28.6 °F 32.0 °F 93% 30.04 in 2.5 mi NW 5.8 mph - 0.00 in Snow Light Snow
5:10 PM 33.8 °F 27.7 °F 32.0 °F 93% 30.04 in 6.0 mi WNW 6.9 mph - 0.00 in Snow Light Snow
5:32 PM 35.6 °F 31.7 °F 33.8 °F 93% 30.05 in 10.0 mi WSW 4.6 mph - 0.00 in   Overcast
5:44 PM 33.8 °F 27.7 °F 33.8 °F 100% 30.05 in 10.0 mi WNW 6.9 mph - 0.00 in   Overcast
6:45 PM 33.8 °F 27.0 °F 32.0 °F 93% 30.06 in 2.5 mi NNW 8.1 mph - 0.01 in Snow Light Snow
6:52 PM 33.1 °F 26.1 °F 32.0 °F 96% 30.08 in 3.0 mi NNW 8.1 mph - 0.01 in Snow Light Snow
7:21 PM 33.8 °F 27.7 °F 32.0 °F 93% 30.07 in 6.0 mi NNW 6.9 mph - 0.00 in Snow Light Snow
7:31 PM 33.8 °F 27.0 °F 32.0 °F 93% 30.07 in 7.0 mi NNW 8.1 mph - 0.00 in   Overcast
7:39 PM 33.8 °F 27.0 °F 32.0 °F 93% 30.07 in 9.0 mi North 8.1 mph - 0.00 in   Overcast
7:44 PM 33.8 °F 26.4 °F 32.0 °F 93% 30.07 in 9.0 mi North 9.2 mph - 0.00 in   Overcast
7:52 PM 34.0 °F 26.0 °F 30.9 °F 89% 30.09 in 8.0 mi North 10.4 mph - 0.00 in   Overcast
8:25 PM 33.8 °F 27.7 °F 32.0 °F 93% 30.08 in 7.0 mi NNW 6.9 mph - 0.00 in Snow Light Snow
8:52 PM 33.1 °F 26.9 °F 32.0 °F 96% 30.09 in 8.0 mi NNW 6.9 mph - 0.00 in   Overcast
9:16 PM 33.8 °F 28.6 °F 32.0 °F 93% 30.08 in 3.0 mi NW 5.8 mph - 0.00 in Snow Light Snow
9:28 PM 33.8 °F 27.7 °F 32.0 °F 93% 30.08 in 1.8 mi NW 6.9 mph - 0.01 in Snow Light Snow
9:39 PM 33.8 °F 27.7 °F 32.0 °F 93% 30.08 in 2.0 mi NNW 6.9 mph - 0.01 in Snow Light Snow
9:52 PM 33.1 °F 26.1 °F 30.9 °F 92% 30.09 in 4.0 mi NNW 8.1 mph - 0.01 in Snow Light Snow
10:13 PM 33.8 °F 27.0 °F 30.2 °F 87% 30.08 in 4.0 mi NNW 8.1 mph - 0.00 in Snow Light Snow
10:29 PM 33.8 °F 27.0 °F 30.2 °F 87% 30.08 in 4.0 mi NNW 8.1 mph - 0.00 in Snow Light Snow
10:37 PM 33.8 °F 27.0 °F 30.2 °F 87% 30.08 in 6.0 mi NNW 8.1 mph - 0.00 in Snow Light Snow
10:50 PM 33.8 °F 26.4 °F 30.2 °F 87% 30.08 in 5.0 mi NNW 9.2 mph - 0.00 in Snow Light Snow
10:52 PM 33.1 °F 26.1 °F 30.9 °F 92% 30.09 in 5.0 mi NNW 8.1 mph - 0.00 in Snow Light Snow
11:01 PM 33.8 °F 27.0 °F 30.2 °F 87% 30.08 in 6.0 mi NNW 8.1 mph - 0.00 in Snow Light Snow
11:10 PM 33.8 °F 27.0 °F 30.2 °F 87% 30.08 in 5.0 mi NW 8.1 mph - 0.00 in Snow Light Snow
11:25 PM 32.0 °F 24.8 °F 30.2 °F 93% 30.08 in 5.0 mi NNW 8.1 mph - 0.00 in Snow Light Snow
11:45 PM 32.0 °F 25.6 °F 30.2 °F 93% 30.08 in 6.0 mi NNW 6.9 mph - 0.00 in Snow Light Snow
11:52 PM 32.0 °F 24.8 °F 30.0 °F 92% 30.09 in 6.0 mi NNW 8.1 mph - 0.00 in Snow Light Snow